Time,TemperatureF,DewpointF,PressureIn,WindDirection,WindDirectionDegrees,WindSpeedMPH,WindSpeedGustMPH,Humidity,HourlyPrecipIn,Conditions,Clouds,dailyrainin,SoftwareType,DateUTC
2013-11-24 00:02:00,31.5,10.5,30.17,North,353,7.0,8.0,41,0.00,,,0.00,Wunderground v.1.15,2013-11-24 05:02:00,
2013-11-24 00:03:00,31.5,10.5,30.17,NW,312,6.0,8.0,41,0.00,,,0.00,Wunderground v.1.15,2013-11-24 05:03:00,
2013-11-24 00:04:00,31.5,11.0,30.17,NNW,335,7.0,8.0,42,0.00,,,0.00,Wunderground v.1.15,2013-11-24 05:04:00,
2013-11-24 00:09:00,31.3,10.3,30.17,North,349,7.0,16.0,41,0.00,,,0.00,Wunderground v.1.15,2013-11-24 05:09:00,
2013-11-24 00:10:00,31.3,10.3,30.17,NW,305,6.0,16.0,41,0.00,,,0.00,Wunderground v.1.15,2013-11-24 05:10:00,
2013-11-24 00:12:00,31.3,10.3,30.17,NW,308,6.0,6.0,41,0.00,,,0.00,Wunderground v.1.15,2013-11-24 05:12:00,
2013-11-24 00:14:00,31.2,9.6,30.18,NNW,333,6.0,9.0,40,0.00,,,0.00,Wunderground v.1.15,2013-11-24 05:14:00,
2013-11-24 00:19:00,31.0,8.9,30.18,North,3,7.0,11.0,39,0.00,,,0.00,Wunderground v.1.15,2013-11-24 05:19:00,
2013-11-24 00:24:00,30.9,8.2,30.18,NNW,330,8.0,8.0,38,0.00,,,0.00,Wunderground v.1.15,2013-11-24 05:24:00,
2013-11-24 00:29:00,30.7,8.6,30.19,SW,234,7.0,18.0,39,0.00,,,0.00,Wunderground v.1.15,2013-11-24 05:29:00,
2013-11-24 00:35:00,30.6,8.5,30.19,NNW,330,8.0,10.0,39,0.00,,,0.00,Wunderground v.1.15,2013-11-24 05:35:00,
2013-11-24 00:40:00,30.4,7.8,30.19,North,3,7.0,16.0,38,0.00,,,0.00,Wunderground v.1.15,2013-11-24 05:40:00,
2013-11-24 00:46:00,30.3,7.7,30.19,North,357,7.0,10.0,38,0.00,,,0.00,Wunderground v.1.15,2013-11-24 05:46:00,
2013-11-24 00:52:00,30.1,7.5,30.19,NNE,13,6.0,6.0,38,0.00,,,0.00,Wunderground v.1.15,2013-11-24 05:52:00,
2013-11-24 00:57:00,30.0,7.4,30.19,WSW,243,6.0,14.0,38,0.00,,,0.00,Wunderground v.1.15,2013-11-24 05:57:00,
2013-11-24 01:03:00,29.8,7.2,30.19,SE,143,7.0,21.0,38,0.00,,,0.00,Wunderground v.1.15,2013-11-24 06:03:00,
2013-11-24 01:06:00,29.7,7.2,30.19,NW,313,8.0,21.0,38,0.00,,,0.00,Wunderground v.1.15,2013-11-24 06:06:00,
2013-11-24 01:12:00,29.5,7.5,30.19,West,274,6.0,8.0,39,0.00,,,0.00,Wunderground v.1.15,2013-11-24 06:12:00,
2013-11-24 01:17:00,29.4,6.9,30.20,NNW,330,7.0,11.0,38,0.00,,,0.00,Wunderground v.1.15,2013-11-24 06:17:00,
2013-11-24 01:23:00,29.3,7.4,30.20,NNW,339,7.0,8.0,39,0.00,,,0.00,Wunderground v.1.15,2013-11-24 06:23:00,
2013-11-24 01:28:00,29.1,7.2,30.20,West,260,6.0,9.0,39,0.00,,,0.00,Wunderground v.1.15,2013-11-24 06:28:00,
2013-11-24 01:34:00,29.0,7.1,30.21,NW,316,5.0,8.0,39,0.00,,,0.00,Wunderground v.1.15,2013-11-24 06:34:00,
2013-11-24 01:39:00,29.0,7.1,30.21,NNE,13,6.0,13.0,39,0.00,,,0.00,Wunderground v.1.15,2013-11-24 06:39:00,
2013-11-24 01:44:00,28.8,6.3,30.22,West,281,6.0,6.0,38,0.00,,,0.00,Wunderground v.1.15,2013-11-24 06:44:00,
2013-11-24 01:49:00,28.7,5.7,30.22,NW,322,7.0,17.0,37,0.00,,,0.00,Wunderground v.1.15,2013-11-24 06:49:00,
2013-11-24 01:54:00,28.4,4.2,30.22,WNW,294,8.0,11.0,35,0.00,,,0.00,Wunderground v.1.15,2013-11-24 06:54:00,
2013-11-24 01:59:00,28.4,4.8,30.22,North,0,7.0,13.0,36,0.00,,,0.00,Wunderground v.1.15,2013-11-24 06:59:00,
2013-11-24 02:04:00,28.2,4.6,30.22,NW,315,6.0,17.0,36,0.00,,,0.00,Wunderground v.1.15,2013-11-24 07:04:00,
2013-11-24 02:09:00,28.1,4.5,30.22,NW,326,6.0,17.0,36,0.00,,,0.00,Wunderground v.1.15,2013-11-24 07:09:00,
2013-11-24 02:15:00,27.9,3.7,30.22,WSW,258,9.0,10.0,35,0.00,,,0.00,Wunderground v.1.15,2013-11-24 07:15:00,
2013-11-24 02:20:00,27.9,3.1,30.22,WSW,256,8.0,13.0,34,0.00,,,0.00,Wunderground v.1.15,2013-11-24 07:20:00,
2013-11-24 02:25:00,27.8,3.0,30.22,NW,315,8.0,10.0,34,0.00,,,0.00,Wunderground v.1.15,2013-11-24 07:25:00,
2013-11-24 02:30:00,27.6,2.2,30.22,NW,322,8.0,11.0,33,0.00,,,0.00,Wunderground v.1.15,2013-11-24 07:30:00,
2013-11-24 02:35:00,27.6,1.5,30.22,West,274,9.0,13.0,32,0.00,,,0.00,Wunderground v.1.15,2013-11-24 07:35:00,
2013-11-24 02:40:00,27.5,0.8,30.22,NNW,342,8.0,13.0,31,0.00,,,0.00,Wunderground v.1.15,2013-11-24 07:40:00,
2013-11-24 02:46:00,27.3,-0.8,30.22,NW,312,9.0,16.0,29,0.00,,,0.00,Wunderground v.1.15,2013-11-24 07:46:00,
2013-11-24 02:51:00,27.2,-0.2,30.22,NW,313,9.0,9.0,30,0.00,,,0.00,Wunderground v.1.15,2013-11-24 07:51:00,
2013-11-24 02:56:00,27.0,0.3,30.22,North,353,7.0,10.0,31,0.00,,,0.00,Wunderground v.1.15,2013-11-24 07:56:00,
2013-11-24 03:01:00,27.0,0.3,30.23,NNW,330,8.0,8.0,31,0.00,,,0.00,Wunderground v.1.15,2013-11-24 08:01:00,
2013-11-24 03:08:00,26.9,0.2,30.23,NNW,329,8.0,21.0,31,0.00,,,0.00,Wunderground v.1.15,2013-11-24 08:08:00,
2013-11-24 03:13:00,26.7,0.7,30.23,North,349,6.0,7.0,32,0.00,,,0.00,Wunderground v.1.15,2013-11-24 08:13:00,
2013-11-24 03:18:00,26.6,1.3,30.24,NW,313,6.0,8.0,33,0.00,,,0.00,Wunderground v.1.15,2013-11-24 08:18:00,
2013-11-24 03:24:00,26.4,1.1,30.24,North,0,7.0,10.0,33,0.00,,,0.00,Wunderground v.1.15,2013-11-24 08:24:00,
2013-11-24 03:30:00,26.4,1.8,30.24,NW,325,5.0,10.0,34,0.00,,,0.00,Wunderground v.1.15,2013-11-24 08:30:00,
2013-11-24 03:35:00,26.3,1.7,30.24,NW,320,4.0,8.0,34,0.00,,,0.00,Wunderground v.1.15,2013-11-24 08:35:00,
2013-11-24 03:41:00,26.1,2.1,30.24,North,6,4.0,4.0,35,0.00,,,0.00,Wunderground v.1.15,2013-11-24 08:41:00,
2013-11-24 03:47:00,26.0,1.4,30.24,NNW,329,5.0,8.0,34,0.00,,,0.00,Wunderground v.1.15,2013-11-24 08:47:00,
2013-11-24 03:53:00,25.8,1.9,30.24,West,261,5.0,5.0,35,0.00,,,0.00,Wunderground v.1.15,2013-11-24 08:53:00,
2013-11-24 03:58:00,25.7,1.2,30.24,NW,305,7.0,14.0,34,0.00,,,0.00,Wunderground v.1.15,2013-11-24 08:58:00,
2013-11-24 04:04:00,25.7,0.5,30.24,WNW,302,8.0,20.0,33,0.00,,,0.00,Wunderground v.1.15,2013-11-24 09:04:00,
2013-11-24 04:10:00,25.6,1.1,30.24,NW,306,6.0,20.0,34,0.00,,,0.00,Wunderground v.1.15,2013-11-24 09:10:00,
2013-11-24 04:16:00,25.6,1.1,30.25,NW,308,6.0,8.0,34,0.00,,,0.00,Wunderground v.1.15,2013-11-24 09:16:00,
2013-11-24 04:21:00,25.4,0.9,30.25,NW,312,6.0,9.0,34,0.00,,,0.00,Wunderground v.1.15,2013-11-24 09:21:00,
2013-11-24 04:27:00,25.4,0.9,30.25,NW,311,6.0,9.0,34,0.00,,,0.00,Wunderground v.1.15,2013-11-24 09:27:00,
2013-11-24 04:33:00,25.4,1.5,30.26,North,0,5.0,6.0,35,0.00,,,0.00,Wunderground v.1.15,2013-11-24 09:33:00,
2013-11-24 04:38:00,25.3,1.4,30.26,NNW,336,4.0,6.0,35,0.00,,,0.00,Wunderground v.1.15,2013-11-24 09:38:00,
2013-11-24 04:43:00,25.3,1.4,30.26,NNW,346,4.0,7.0,35,0.00,,,0.00,Wunderground v.1.15,2013-11-24 09:43:00,
2013-11-24 04:48:00,25.1,1.2,30.27,North,353,5.0,7.0,35,0.00,,,0.00,Wunderground v.1.15,2013-11-24 09:48:00,
2013-11-24 04:53:00,25.1,1.2,30.27,NW,318,4.0,6.0,35,0.00,,,0.00,Wunderground v.1.15,2013-11-24 09:53:00,
2013-11-24 04:58:00,25.0,1.8,30.27,WNW,284,4.0,10.0,36,0.00,,,0.00,Wunderground v.1.15,2013-11-24 09:58:00,
2013-11-24 05:04:00,25.0,1.8,30.27,North,353,5.0,20.0,36,0.00,,,0.00,Wunderground v.1.15,2013-11-24 10:04:00,
2013-11-24 05:10:00,24.8,2.2,30.27,NW,320,5.0,20.0,37,0.00,,,0.00,Wunderground v.1.15,2013-11-24 10:10:00,
2013-11-24 05:16:00,24.8,2.2,30.28,WNW,287,4.0,10.0,37,0.00,,,0.00,Wunderground v.1.15,2013-11-24 10:16:00,
2013-11-24 05:21:00,24.7,2.1,30.28,WNW,296,5.0,7.0,37,0.00,,,0.00,Wunderground v.1.15,2013-11-24 10:21:00,
2013-11-24 05:26:00,24.7,2.1,30.28,NNE,31,7.0,8.0,37,0.00,,,0.00,Wunderground v.1.15,2013-11-24 10:26:00,
2013-11-24 05:32:00,24.7,2.1,30.29,NNW,329,6.0,6.0,37,0.00,,,0.00,Wunderground v.1.15,2013-11-24 10:32:00,
2013-11-24 05:37:00,24.7,2.7,30.29,WNW,295,6.0,11.0,38,0.00,,,0.00,Wunderground v.1.15,2013-11-24 10:37:00,
2013-11-24 05:43:00,24.5,3.0,30.29,NNW,329,7.0,8.0,39,0.00,,,0.00,Wunderground v.1.15,2013-11-24 10:43:00,
2013-11-24 05:48:00,24.5,3.0,30.29,NNW,344,7.0,11.0,39,0.00,,,0.00,Wunderground v.1.15,2013-11-24 10:48:00,
2013-11-24 05:54:00,24.5,3.6,30.29,NNW,346,5.0,6.0,40,0.00,,,0.00,Wunderground v.1.15,2013-11-24 10:54:00,
2013-11-24 05:59:00,24.4,3.5,30.30,North,349,5.0,7.0,40,0.00,,,0.00,Wunderground v.1.15,2013-11-24 10:59:00,
2013-11-24 06:04:00,24.4,3.5,30.30,North,0,6.0,11.0,40,0.00,,,0.00,Wunderground v.1.15,2013-11-24 11:04:00,
2013-11-24 06:10:00,24.2,3.9,30.30,NNW,344,6.0,11.0,41,0.00,,,0.00,Wunderground v.1.15,2013-11-24 11:10:00,
2013-11-24 06:16:00,24.2,3.9,30.31,NNW,336,5.0,10.0,41,0.00,,,0.00,Wunderground v.1.15,2013-11-24 11:16:00,
2013-11-24 06:21:00,24.1,3.8,30.31,NW,318,5.0,6.0,41,0.00,,,0.00,Wunderground v.1.15,2013-11-24 11:21:00,
2013-11-24 06:26:00,24.1,4.3,30.31,North,353,3.0,7.0,42,0.00,,,0.00,Wunderground v.1.15,2013-11-24 11:26:00,
2013-11-24 06:31:00,24.1,4.3,30.32,NW,318,4.0,4.0,42,0.00,,,0.00,Wunderground v.1.15,2013-11-24 11:31:00,
2013-11-24 06:37:00,23.9,4.1,30.32,WNW,292,4.0,8.0,42,0.00,,,0.00,Wunderground v.1.15,2013-11-24 11:37:00,
2013-11-24 06:43:00,23.9,4.1,30.32,North,350,4.0,6.0,42,0.00,,,0.00,Wunderground v.1.15,2013-11-24 11:43:00,
2013-11-24 06:48:00,23.9,4.1,30.32,NW,312,4.0,9.0,42,0.00,,,0.00,Wunderground v.1.15,2013-11-24 11:48:00,
2013-11-24 06:53:00,23.9,4.1,30.32,NW,326,4.0,6.0,42,0.00,,,0.00,Wunderground v.1.15,2013-11-24 11:53:00,
2013-11-24 06:59:00,23.9,4.1,30.33,NNW,347,5.0,8.0,42,0.00,,,0.00,Wunderground v.1.15,2013-11-24 11:59:00,
2013-11-24 07:04:00,23.9,4.6,30.33,North,6,4.0,21.0,43,0.00,,,0.00,Wunderground v.1.15,2013-11-24 12:04:00,
2013-11-24 07:10:00,23.8,4.5,30.33,NW,304,4.0,21.0,43,0.00,,,0.00,Wunderground v.1.15,2013-11-24 12:10:00,
2013-11-24 07:15:00,23.8,5.0,30.33,WNW,282,5.0,13.0,44,0.00,,,0.00,Wunderground v.1.15,2013-11-24 12:15:00,
2013-11-24 07:20:00,23.8,5.0,30.33,WNW,284,4.0,13.0,44,0.00,,,0.00,Wunderground v.1.15,2013-11-24 12:20:00,
2013-11-24 07:26:00,23.6,4.8,30.33,NW,326,4.0,8.0,44,0.00,,,0.00,Wunderground v.1.15,2013-11-24 12:26:00,
2013-11-24 07:31:00,23.6,4.8,30.33,WNW,301,4.0,4.0,44,0.00,,,0.00,Wunderground v.1.15,2013-11-24 12:31:00,
2013-11-24 07:36:00,23.6,4.8,30.33,WNW,287,3.0,4.0,44,0.00,,,0.00,Wunderground v.1.15,2013-11-24 12:36:00,
2013-11-24 07:41:00,23.6,4.8,30.33,NNE,31,3.0,6.0,44,0.00,,,0.00,Wunderground v.1.15,2013-11-24 12:41:00,
2013-11-24 07:46:00,23.8,5.0,30.34,NNW,340,3.0,7.0,44,0.00,,,0.00,Wunderground v.1.15,2013-11-24 12:46:00,
2013-11-24 07:51:00,23.8,5.0,30.34,WNW,289,2.0,6.0,44,0.00,,,0.00,Wunderground v.1.15,2013-11-24 12:51:00,
2013-11-24 07:56:00,23.9,5.1,30.34,NW,304,3.0,9.0,44,0.00,,,0.00,Wunderground v.1.15,2013-11-24 12:56:00,
2013-11-24 08:01:00,24.2,5.4,30.35,NNW,329,5.0,5.0,44,0.00,,,0.00,Wunderground v.1.15,2013-11-24 13:01:00,
2013-11-24 08:07:00,24.4,5.6,30.35,NNW,333,4.0,13.0,44,0.00,,,0.00,Wunderground v.1.15,2013-11-24 13:07:00,
2013-11-24 08:13:00,24.7,5.8,30.35,North,357,5.0,11.0,44,0.00,,,0.00,Wunderground v.1.15,2013-11-24 13:13:00,
2013-11-24 08:18:00,24.8,5.4,30.35,NW,318,7.0,11.0,43,0.00,,,0.00,Wunderground v.1.15,2013-11-24 13:18:00,
2013-11-24 08:23:00,25.0,5.6,30.35,NW,312,6.0,9.0,43,0.00,,,0.00,Wunderground v.1.15,2013-11-24 13:23:00,
2013-11-24 08:28:00,25.1,6.2,30.35,West,281,5.0,9.0,44,0.00,,,0.00,Wunderground v.1.15,2013-11-24 13:28:00,
2013-11-24 08:33:00,25.1,5.7,30.36,NNE,24,4.0,7.0,43,0.00,,,0.00,Wunderground v.1.15,2013-11-24 13:33:00,
2013-11-24 08:38:00,25.3,6.4,30.36,WNW,301,3.0,8.0,44,0.00,,,0.00,Wunderground v.1.15,2013-11-24 13:38:00,
2013-11-24 08:43:00,25.3,5.9,30.36,West,278,5.0,13.0,43,0.00,,,0.00,Wunderground v.1.15,2013-11-24 13:43:00,
2013-11-24 08:48:00,25.3,5.9,30.37,NW,319,7.0,16.0,43,0.00,,,0.00,Wunderground v.1.15,2013-11-24 13:48:00,
2013-11-24 08:53:00,25.3,5.9,30.37,WNW,302,7.0,17.0,43,0.00,,,0.00,Wunderground v.1.15,2013-11-24 13:53:00,
2013-11-24 08:58:00,25.4,6.0,30.37,NW,318,7.0,17.0,43,0.00,,,0.00,Wunderground v.1.15,2013-11-24 13:58:00,
2013-11-24 09:03:00,25.4,6.0,30.37,NNE,30,8.0,14.0,43,0.00,,,0.00,Wunderground v.1.15,2013-11-24 14:03:00,
2013-11-24 09:09:00,25.4,6.0,30.37,NW,326,7.0,14.0,43,0.00,,,0.00,Wunderground v.1.15,2013-11-24 14:09:00,
2013-11-24 09:15:00,25.6,6.2,30.38,North,356,5.0,6.0,43,0.00,,,0.00,Wunderground v.1.15,2013-11-24 14:15:00,
2013-11-24 09:20:00,25.6,5.6,30.38,WNW,302,5.0,10.0,42,0.00,,,0.00,Wunderground v.1.15,2013-11-24 14:20:00,
2013-11-24 09:25:00,25.8,5.8,30.38,North,0,6.0,8.0,42,0.00,,,0.00,Wunderground v.1.15,2013-11-24 14:25:00,
2013-11-24 09:30:00,26.0,5.5,30.38,NW,320,6.0,8.0,41,0.00,,,0.00,Wunderground v.1.15,2013-11-24 14:30:00,
2013-11-24 09:35:00,26.3,5.8,30.38,WNW,291,6.0,10.0,41,0.00,,,0.00,Wunderground v.1.15,2013-11-24 14:35:00,
2013-11-24 09:40:00,26.4,5.3,30.38,East,93,6.0,10.0,40,0.00,,,0.00,Wunderground v.1.15,2013-11-24 14:40:00,
2013-11-24 09:45:00,26.6,5.5,30.38,NNW,342,7.0,8.0,40,0.00,,,0.00,Wunderground v.1.15,2013-11-24 14:45:00,
2013-11-24 09:50:00,26.7,5.6,30.38,WNW,291,5.0,10.0,40,0.00,,,0.00,Wunderground v.1.15,2013-11-24 14:50:00,
2013-11-24 09:55:00,26.7,5.6,30.38,North,0,6.0,7.0,40,0.00,,,0.00,Wunderground v.1.15,2013-11-24 14:55:00,
2013-11-24 10:01:00,26.7,5.0,30.39,North,0,8.0,10.0,39,0.00,,,0.00,Wunderground v.1.15,2013-11-24 15:01:00,
2013-11-24 10:06:00,26.7,5.0,30.39,NNE,13,7.0,20.0,39,0.00,,,0.00,Wunderground v.1.15,2013-11-24 15:06:00,
2013-11-24 10:11:00,26.9,5.2,30.39,WNW,291,7.0,9.0,39,0.00,,,0.00,Wunderground v.1.15,2013-11-24 15:11:00,
2013-11-24 10:16:00,27.2,6.0,30.39,WNW,288,7.0,9.0,40,0.00,,,0.00,Wunderground v.1.15,2013-11-24 15:16:00,
2013-11-24 10:21:00,28.2,5.8,30.39,WNW,287,6.0,10.0,38,0.00,,,0.00,Wunderground v.1.15,2013-11-24 15:21:00,
2013-11-24 10:26:00,28.5,4.9,30.39,North,0,7.0,14.0,36,0.00,,,0.00,Wunderground v.1.15,2013-11-24 15:26:00,
2013-11-24 10:32:00,29.3,4.4,30.39,NW,318,6.0,10.0,34,0.00,,,0.00,Wunderground v.1.15,2013-11-24 15:32:00,
2013-11-24 10:37:00,28.4,3.6,30.39,WNW,298,7.0,11.0,34,0.00,,,0.00,Wunderground v.1.15,2013-11-24 15:37:00,
2013-11-24 10:43:00,28.2,4.6,30.39,NW,325,8.0,9.0,36,0.00,,,0.00,Wunderground v.1.15,2013-11-24 15:43:00,
2013-11-24 10:49:00,28.4,4.8,30.40,NW,319,7.0,17.0,36,0.00,,,0.00,Wunderground v.1.15,2013-11-24 15:49:00,
2013-11-24 10:54:00,28.1,4.5,30.40,NW,316,8.0,14.0,36,0.00,,,0.00,Wunderground v.1.15,2013-11-24 15:54:00,
2013-11-24 10:59:00,28.1,3.9,30.39,NNW,347,9.0,14.0,35,0.00,,,0.00,Wunderground v.1.15,2013-11-24 15:59:00,
2013-11-24 11:05:00,28.2,4.0,30.39,NNW,337,7.0,16.0,35,0.00,,,0.00,Wunderground v.1.15,2013-11-24 16:05:00,
2013-11-24 11:11:00,28.4,4.2,30.39,NNW,337,6.0,6.0,35,0.00,,,0.00,Wunderground v.1.15,2013-11-24 16:11:00,
2013-11-24 11:17:00,28.4,4.2,30.38,North,6,7.0,11.0,35,0.00,,,0.00,Wunderground v.1.15,2013-11-24 16:17:00,
2013-11-24 11:23:00,28.8,4.5,30.38,NW,315,7.0,8.0,35,0.00,,,0.00,Wunderground v.1.15,2013-11-24 16:23:00,
2013-11-24 11:28:00,29.0,4.7,30.38,North,10,6.0,10.0,35,0.00,,,0.00,Wunderground v.1.15,2013-11-24 16:28:00,
2013-11-24 11:33:00,29.3,4.4,30.38,WNW,301,7.0,10.0,34,0.00,,,0.00,Wunderground v.1.15,2013-11-24 16:33:00,
2013-11-24 11:38:00,29.5,3.9,30.38,West,272,7.0,11.0,33,0.00,,,0.00,Wunderground v.1.15,2013-11-24 16:38:00,
2013-11-24 11:43:00,29.5,3.2,30.38,NW,306,8.0,14.0,32,0.00,,,0.00,Wunderground v.1.15,2013-11-24 16:43:00,
2013-11-24 11:48:00,29.4,3.8,30.38,North,0,9.0,14.0,33,0.00,,,0.00,Wunderground v.1.15,2013-11-24 16:48:00,
2013-11-24 11:53:00,29.0,3.4,30.38,WNW,287,8.0,13.0,33,0.00,,,0.00,Wunderground v.1.15,2013-11-24 16:53:00,
2013-11-24 11:58:00,29.1,4.2,30.38,WNW,288,6.0,13.0,34,0.00,,,0.00,Wunderground v.1.15,2013-11-24 16:58:00,
2013-11-24 12:03:00,29.5,3.9,30.38,North,353,7.0,21.0,33,0.00,,,0.00,Wunderground v.1.15,2013-11-24 17:03:00,
2013-11-24 12:08:00,29.7,4.1,30.38,NNW,342,9.0,21.0,33,0.00,,,0.00,Wunderground v.1.15,2013-11-24 17:08:00,
2013-11-24 12:13:00,29.3,4.4,30.38,WNW,294,9.0,11.0,34,0.00,,,0.00,Wunderground v.1.15,2013-11-24 17:13:00,
2013-11-24 12:18:00,29.1,4.2,30.38,NNW,336,9.0,11.0,34,0.00,,,0.00,Wunderground v.1.15,2013-11-24 17:18:00,
2013-11-24 12:23:00,29.3,4.4,30.38,NNW,340,8.0,14.0,34,0.00,,,0.00,Wunderground v.1.15,2013-11-24 17:23:00,
2013-11-24 12:28:00,29.7,6.0,30.38,WSW,250,7.0,14.0,36,0.00,,,0.00,Wunderground v.1.15,2013-11-24 17:28:00,
2013-11-24 12:33:00,30.0,4.3,30.38,North,0,6.0,6.0,33,0.00,,,0.00,Wunderground v.1.15,2013-11-24 17:33:00,
2013-11-24 12:38:00,29.8,4.8,30.38,NW,312,6.0,7.0,34,0.00,,,0.00,Wunderground v.1.15,2013-11-24 17:38:00,
2013-11-24 12:43:00,30.0,5.0,30.38,WNW,284,6.0,14.0,34,0.00,,,0.00,Wunderground v.1.15,2013-11-24 17:43:00,
2013-11-24 12:49:00,30.0,4.3,30.37,North,0,8.0,14.0,33,0.00,,,0.00,Wunderground v.1.15,2013-11-24 17:49:00,
2013-11-24 12:54:00,30.0,4.3,30.37,North,0,7.0,8.0,33,0.00,,,0.00,Wunderground v.1.15,2013-11-24 17:54:00,
2013-11-24 12:59:00,29.8,4.1,30.38,NW,326,7.0,9.0,33,0.00,,,0.00,Wunderground v.1.15,2013-11-24 17:59:00,
2013-11-24 13:04:00,30.0,3.7,30.38,West,280,6.0,17.0,32,0.00,,,0.00,Wunderground v.1.15,2013-11-24 18:04:00,
2013-11-24 13:09:00,30.1,3.7,30.38,WNW,294,7.0,17.0,32,0.00,,,0.00,Wunderground v.1.15,2013-11-24 18:09:00,
2013-11-24 13:14:00,30.1,3.7,30.38,NW,316,6.0,7.0,32,0.00,,,0.00,Wunderground v.1.15,2013-11-24 18:14:00,
2013-11-24 13:19:00,30.3,3.9,30.38,NNW,329,6.0,10.0,32,0.00,,,0.00,Wunderground v.1.15,2013-11-24 18:19:00,
2013-11-24 13:24:00,30.3,3.9,30.38,WNW,299,7.0,8.0,32,0.00,,,0.00,Wunderground v.1.15,2013-11-24 18:24:00,
2013-11-24 13:29:00,30.3,3.9,30.37,WNW,296,6.0,8.0,32,0.00,,,0.00,Wunderground v.1.15,2013-11-24 18:29:00,
2013-11-24 13:34:00,30.3,3.9,30.37,WNW,298,7.0,11.0,32,0.00,,,0.00,Wunderground v.1.15,2013-11-24 18:34:00,
2013-11-24 13:39:00,30.3,3.9,30.37,NW,315,7.0,14.0,32,0.00,,,0.00,Wunderground v.1.15,2013-11-24 18:39:00,
2013-11-24 13:44:00,30.4,4.0,30.37,NNW,332,7.0,8.0,32,0.00,,,0.00,Wunderground v.1.15,2013-11-24 18:44:00,
2013-11-24 13:49:00,30.4,3.3,30.37,NNW,332,8.0,8.0,31,0.00,,,0.00,Wunderground v.1.15,2013-11-24 18:49:00,
2013-11-24 13:54:00,30.3,3.9,30.37,North,0,8.0,10.0,32,0.00,,,0.00,Wunderground v.1.15,2013-11-24 18:54:00,
2013-11-24 13:59:00,30.3,3.9,30.37,NW,320,8.0,10.0,32,0.00,,,0.00,Wunderground v.1.15,2013-11-24 18:59:00,
2013-11-24 14:04:00,30.1,3.7,30.37,West,260,8.0,20.0,32,0.00,,,0.00,Wunderground v.1.15,2013-11-24 19:04:00,
2013-11-24 14:09:00,30.1,3.7,30.37,NW,313,7.0,20.0,32,0.00,,,0.00,Wunderground v.1.15,2013-11-24 19:09:00,
2013-11-24 14:14:00,30.1,3.7,30.37,NW,313,6.0,13.0,32,0.00,,,0.00,Wunderground v.1.15,2013-11-24 19:14:00,
2013-11-24 14:20:00,30.0,4.3,30.37,NW,319,8.0,13.0,33,0.00,,,0.00,Wunderground v.1.15,2013-11-24 19:20:00,
2013-11-24 14:26:00,30.0,3.7,30.37,WNW,296,8.0,13.0,32,0.00,,,0.00,Wunderground v.1.15,2013-11-24 19:26:00,
2013-11-24 14:31:00,30.0,3.7,30.37,WNW,299,7.0,8.0,32,0.00,,,0.00,Wunderground v.1.15,2013-11-24 19:31:00,
2013-11-24 14:37:00,29.8,3.5,30.37,NW,312,7.0,16.0,32,0.00,,,0.00,Wunderground v.1.15,2013-11-24 19:37:00,
2013-11-24 14:43:00,29.5,3.2,30.37,NNE,30,9.0,11.0,32,0.00,,,0.00,Wunderground v.1.15,2013-11-24 19:43:00,
2013-11-24 14:48:00,29.5,3.9,30.37,NNW,344,9.0,14.0,33,0.00,,,0.00,Wunderground v.1.15,2013-11-24 19:48:00,
2013-11-24 14:54:00,29.4,3.8,30.37,WNW,285,7.0,8.0,33,0.00,,,0.00,Wunderground v.1.15,2013-11-24 19:54:00,
2013-11-24 14:59:00,29.4,3.8,30.38,WSW,257,8.0,10.0,33,0.00,,,0.00,Wunderground v.1.15,2013-11-24 19:59:00,
2013-11-24 15:05:00,29.4,5.1,30.38,NNW,332,9.0,17.0,35,0.00,,,0.00,Wunderground v.1.15,2013-11-24 20:05:00,
2013-11-24 15:11:00,29.3,5.0,30.38,West,268,8.0,18.0,35,0.00,,,0.00,Wunderground v.1.15,2013-11-24 20:11:00,
2013-11-24 15:16:00,29.3,5.0,30.39,NNW,344,7.0,18.0,35,0.00,,,0.00,Wunderground v.1.15,2013-11-24 20:16:00,
2013-11-24 15:22:00,29.3,5.0,30.39,NNW,337,4.0,5.0,35,0.00,,,0.00,Wunderground v.1.15,2013-11-24 20:22:00,
2013-11-24 15:27:00,29.3,4.4,30.39,NNW,340,6.0,10.0,34,0.00,,,0.00,Wunderground v.1.15,2013-11-24 20:27:00,
2013-11-24 15:33:00,29.3,4.4,30.39,NNW,333,8.0,8.0,34,0.00,,,0.00,Wunderground v.1.15,2013-11-24 20:33:00,
2013-11-24 15:38:00,29.1,4.2,30.39,NW,323,7.0,13.0,34,0.00,,,0.00,Wunderground v.1.15,2013-11-24 20:38:00,
2013-11-24 15:44:00,29.1,4.2,30.40,North,349,5.0,6.0,34,0.00,,,0.00,Wunderground v.1.15,2013-11-24 20:44:00,
2013-11-24 15:49:00,29.0,4.7,30.40,North,3,5.0,10.0,35,0.00,,,0.00,Wunderground v.1.15,2013-11-24 20:49:00,
2013-11-24 15:54:00,28.8,5.2,30.40,NNW,332,6.0,8.0,36,0.00,,,0.00,Wunderground v.1.15,2013-11-24 20:54:00,
2013-11-24 16:00:00,28.8,5.2,30.40,North,353,6.0,9.0,36,0.00,,,0.00,Wunderground v.1.15,2013-11-24 21:00:00,
2013-11-24 16:05:00,28.7,5.7,30.40,North,356,6.0,17.0,37,0.00,,,0.00,Wunderground v.1.15,2013-11-24 21:05:00,
2013-11-24 16:11:00,28.5,6.1,30.40,WNW,285,5.0,5.0,38,0.00,,,0.00,Wunderground v.1.15,2013-11-24 21:11:00,
2013-11-24 16:16:00,28.5,6.1,30.41,NNW,339,6.0,7.0,38,0.00,,,0.00,Wunderground v.1.15,2013-11-24 21:16:00,
2013-11-24 16:21:00,28.4,6.0,30.41,NNW,337,5.0,5.0,38,0.00,,,0.00,Wunderground v.1.15,2013-11-24 21:21:00,
2013-11-24 16:26:00,28.4,6.0,30.41,NW,318,4.0,7.0,38,0.00,,,0.00,Wunderground v.1.15,2013-11-24 21:26:00,
2013-11-24 16:32:00,28.4,6.0,30.41,NW,318,2.0,2.0,38,0.00,,,0.00,Wunderground v.1.15,2013-11-24 21:32:00,
2013-11-24 16:37:00,-999.9,-99.9,30.41,North,32767,-999.0,2.0,255,-99.99,,,0.00,Wunderground v.1.15,2013-11-24 21:37:00,
2013-11-24 16:43:00,-999.9,-99.9,30.41,North,32767,-999.0,0.0,255,-99.99,,,0.00,Wunderground v.1.15,2013-11-24 21:43:00,
2013-11-24 16:48:00,-999.9,-99.9,30.42,North,32767,-999.0,0.0,255,-99.99,,,0.00,Wunderground v.1.15,2013-11-24 21:48:00,
2013-11-24 16:53:00,28.1,5.1,30.42,North,0,4.0,6.0,37,0.00,,,0.00,Wunderground v.1.15,2013-11-24 21:53:00,
2013-11-24 16:58:00,27.9,5.5,30.42,NNW,329,5.0,8.0,38,0.00,,,0.00,Wunderground v.1.15,2013-11-24 21:58:00,
2013-11-24 17:03:00,27.9,5.5,30.42,North,349,6.0,14.0,38,0.00,,,0.00,Wunderground v.1.15,2013-11-24 22:03:00,
2013-11-24 17:09:00,27.8,5.4,30.42,NW,311,6.0,14.0,38,0.00,,,0.00,Wunderground v.1.15,2013-11-24 22:09:00,
2013-11-24 17:14:00,27.8,5.4,30.42,NW,311,5.0,8.0,38,0.00,,,0.00,Wunderground v.1.15,2013-11-24 22:14:00,
2013-11-24 17:19:00,27.8,6.0,30.42,North,354,4.0,8.0,39,0.00,,,0.00,Wunderground v.1.15,2013-11-24 22:19:00,
2013-11-24 17:24:00,27.6,5.3,30.42,NW,306,5.0,10.0,38,0.00,,,0.00,Wunderground v.1.15,2013-11-24 22:24:00,
2013-11-24 17:29:00,27.6,5.3,30.43,West,278,6.0,10.0,38,0.00,,,0.00,Wunderground v.1.15,2013-11-24 22:29:00,
2013-11-24 17:34:00,27.5,5.2,30.43,NNW,342,5.0,10.0,38,0.00,,,0.00,Wunderground v.1.15,2013-11-24 22:34:00,
2013-11-24 17:39:00,27.5,5.2,30.43,WSW,246,5.0,11.0,38,0.00,,,0.00,Wunderground v.1.15,2013-11-24 22:39:00,
2013-11-24 17:45:00,27.5,5.7,30.44,WNW,302,4.0,5.0,39,0.00,,,0.00,Wunderground v.1.15,2013-11-24 22:45:00,
2013-11-24 17:50:00,27.3,5.6,30.44,NW,315,3.0,8.0,39,0.00,,,0.00,Wunderground v.1.15,2013-11-24 22:50:00,
2013-11-24 17:55:00,27.3,5.6,30.44,North,0,3.0,9.0,39,0.00,,,0.00,Wunderground v.1.15,2013-11-24 22:55:00,
2013-11-24 18:01:00,27.2,5.5,30.45,WNW,294,3.0,3.0,39,0.00,,,0.00,Wunderground v.1.15,2013-11-24 23:01:00,
2013-11-24 18:08:00,27.2,5.5,30.45,WNW,301,4.0,11.0,39,0.00,,,0.00,Wunderground v.1.15,2013-11-24 23:08:00,
2013-11-24 18:13:00,27.0,5.3,30.45,WNW,295,4.0,6.0,39,0.00,,,0.00,Wunderground v.1.15,2013-11-24 23:13:00,
2013-11-24 18:18:00,27.0,5.3,30.45,NNW,336,5.0,8.0,39,0.00,,,0.00,Wunderground v.1.15,2013-11-24 23:18:00,
2013-11-24 18:23:00,27.0,5.8,30.45,North,357,5.0,9.0,40,0.00,,,0.00,Wunderground v.1.15,2013-11-24 23:23:00,
2013-11-24 18:28:00,27.0,5.8,30.45,NNW,335,4.0,9.0,40,0.00,,,0.00,Wunderground v.1.15,2013-11-24 23:28:00,
2013-11-24 18:34:00,27.0,5.3,30.46,NW,319,4.0,6.0,39,0.00,,,0.00,Wunderground v.1.15,2013-11-24 23:34:00,
2013-11-24 18:39:00,26.9,5.8,30.46,NNW,330,3.0,6.0,40,0.00,,,0.00,Wunderground v.1.15,2013-11-24 23:39:00,
2013-11-24 18:44:00,26.9,5.8,30.46,NW,315,3.0,7.0,40,0.00,,,0.00,Wunderground v.1.15,2013-11-24 23:44:00,
2013-11-24 18:49:00,26.9,5.8,30.46,NW,315,2.0,7.0,40,0.00,,,0.00,Wunderground v.1.15,2013-11-24 23:49:00,
2013-11-24 18:54:00,26.7,5.6,30.46,NW,308,2.0,7.0,40,0.00,,,0.00,Wunderground v.1.15,2013-11-24 23:54:00,
2013-11-24 18:59:00,26.7,5.6,30.47,NW,311,2.0,7.0,40,0.00,,,0.00,Wunderground v.1.15,2013-11-24 23:59:00,
2013-11-24 19:04:00,26.6,6.0,30.47,NW,313,2.0,14.0,41,0.00,,,0.00,Wunderground v.1.15,2013-11-25 00:04:00,
2013-11-24 19:09:00,26.6,6.0,30.47,NW,313,2.0,14.0,41,0.00,,,0.00,Wunderground v.1.15,2013-11-25 00:09:00,
2013-11-24 19:14:00,26.4,5.3,30.48,WNW,302,2.0,8.0,40,0.00,,,0.00,Wunderground v.1.15,2013-11-25 00:14:00,
2013-11-24 19:19:00,26.4,5.3,30.48,WNW,292,2.0,8.0,40,0.00,,,0.00,Wunderground v.1.15,2013-11-25 00:19:00,
2013-11-24 19:25:00,26.3,5.8,30.48,NW,318,3.0,6.0,41,0.00,,,0.00,Wunderground v.1.15,2013-11-25 00:25:00,
2013-11-24 19:31:00,26.3,5.8,30.48,NNW,336,3.0,3.0,41,0.00,,,0.00,Wunderground v.1.15,2013-11-25 00:31:00,
2013-11-24 19:36:00,26.3,5.8,30.48,NW,315,3.0,7.0,41,0.00,,,0.00,Wunderground v.1.15,2013-11-25 00:36:00,
2013-11-24 19:41:00,26.3,6.3,30.48,NNW,339,3.0,3.0,42,0.00,,,0.00,Wunderground v.1.15,2013-11-25 00:41:00,
2013-11-24 19:46:00,26.1,6.1,30.48,NW,325,1.0,3.0,42,0.00,,,0.00,Wunderground v.1.15,2013-11-25 00:46:00,
2013-11-24 19:51:00,26.1,6.6,30.48,NW,322,1.0,1.0,43,0.00,,,0.00,Wunderground v.1.15,2013-11-25 00:51:00,
2013-11-24 19:56:00,26.0,6.0,30.48,NW,322,0.0,1.0,42,0.00,,,0.00,Wunderground v.1.15,2013-11-25 00:56:00,
2013-11-24 20:01:00,26.0,6.5,30.49,NW,322,0.0,0.0,43,0.00,,,0.00,Wunderground v.1.15,2013-11-25 01:01:00,
2013-11-24 20:06:00,26.0,6.5,30.49,NW,322,0.0,11.0,43,0.00,,,0.00,Wunderground v.1.15,2013-11-25 01:06:00,
2013-11-24 20:11:00,25.8,6.3,30.49,NW,322,1.0,1.0,43,0.00,,,0.00,Wunderground v.1.15,2013-11-25 01:11:00,
2013-11-24 20:16:00,25.7,6.8,30.48,NW,316,2.0,6.0,44,0.00,,,0.00,Wunderground v.1.15,2013-11-25 01:16:00,
2013-11-24 20:21:00,25.6,6.2,30.48,NW,308,2.0,2.0,43,0.00,,,0.00,Wunderground v.1.15,2013-11-25 01:21:00,
2013-11-24 20:27:00,25.6,6.7,30.48,NW,309,3.0,6.0,44,0.00,,,0.00,Wunderground v.1.15,2013-11-25 01:27:00,
2013-11-24 20:33:00,25.4,6.5,30.48,West,274,2.0,2.0,44,0.00,,,0.00,Wunderground v.1.15,2013-11-25 01:33:00,
2013-11-24 20:38:00,25.4,6.5,30.48,West,270,2.0,2.0,44,0.00,,,0.00,Wunderground v.1.15,2013-11-25 01:38:00,
2013-11-24 20:44:00,25.3,6.4,30.49,WNW,288,1.0,2.0,44,0.00,,,0.00,Wunderground v.1.15,2013-11-25 01:44:00,
2013-11-24 20:49:00,25.3,6.9,30.49,WNW,288,0.0,2.0,45,0.00,,,0.00,Wunderground v.1.15,2013-11-25 01:49:00,
2013-11-24 20:55:00,25.3,6.9,30.49,WNW,288,0.0,1.0,45,0.00,,,0.00,Wunderground v.1.15,2013-11-25 01:55:00,
2013-11-24 21:00:00,25.1,6.7,30.49,WNW,288,0.0,2.0,45,0.00,,,0.00,Wunderground v.1.15,2013-11-25 02:00:00,
2013-11-24 21:05:00,25.1,6.7,30.49,WNW,288,1.0,7.0,45,0.00,,,0.00,Wunderground v.1.15,2013-11-25 02:05:00,
2013-11-24 21:11:00,25.0,7.1,30.49,WNW,295,2.0,2.0,46,0.00,,,0.00,Wunderground v.1.15,2013-11-25 02:11:00,
2013-11-24 21:16:00,24.8,6.9,30.49,WNW,295,1.0,2.0,46,0.00,,,0.00,Wunderground v.1.15,2013-11-25 02:16:00,
2013-11-24 21:22:00,24.7,6.8,30.49,WNW,288,1.0,1.0,46,0.00,,,0.00,Wunderground v.1.15,2013-11-25 02:22:00,
2013-11-24 21:27:00,24.5,6.6,30.49,WNW,288,1.0,1.0,46,0.00,,,0.00,Wunderground v.1.15,2013-11-25 02:27:00,
2013-11-24 21:33:00,24.4,6.6,30.50,WNW,285,1.0,8.0,46,0.00,,,0.00,Wunderground v.1.15,2013-11-25 02:33:00,
2013-11-24 21:38:00,24.4,6.6,30.50,WNW,289,2.0,8.0,46,0.00,,,0.00,Wunderground v.1.15,2013-11-25 02:38:00,
2013-11-24 21:44:00,24.2,6.4,30.49,WNW,289,2.0,2.0,46,0.00,,,0.00,Wunderground v.1.15,2013-11-25 02:44:00,
2013-11-24 21:49:00,24.2,6.4,30.49,West,261,2.0,4.0,46,0.00,,,0.00,Wunderground v.1.15,2013-11-25 02:49:00,
2013-11-24 21:55:00,24.1,6.3,30.49,WNW,291,2.0,2.0,46,0.00,,,0.00,Wunderground v.1.15,2013-11-25 02:55:00,
2013-11-24 22:00:00,24.1,6.3,30.50,WNW,291,1.0,2.0,46,0.00,,,0.00,Wunderground v.1.15,2013-11-25 03:00:00,
2013-11-24 22:05:00,24.1,6.7,30.50,WNW,291,1.0,7.0,47,0.00,,,0.00,Wunderground v.1.15,2013-11-25 03:05:00,
2013-11-24 22:11:00,24.1,6.7,30.50,WNW,291,1.0,1.0,47,0.00,,,0.00,Wunderground v.1.15,2013-11-25 03:11:00,
2013-11-24 22:16:00,24.1,6.7,30.49,WNW,294,1.0,2.0,47,0.00,,,0.00,Wunderground v.1.15,2013-11-25 03:16:00,
2013-11-24 22:21:00,23.9,7.0,30.49,WNW,294,1.0,1.0,48,0.00,,,0.00,Wunderground v.1.15,2013-11-25 03:21:00,
2013-11-24 22:26:00,23.9,7.0,30.49,WNW,294,1.0,2.0,48,0.00,,,0.00,Wunderground v.1.15,2013-11-25 03:26:00,
2013-11-24 22:31:00,23.8,6.9,30.50,WNW,294,1.0,1.0,48,0.00,,,0.00,Wunderground v.1.15,2013-11-25 03:31:00,
2013-11-24 22:36:00,23.8,6.9,30.50,NW,323,1.0,6.0,48,0.00,,,0.00,Wunderground v.1.15,2013-11-25 03:36:00,
2013-11-24 22:41:00,23.6,6.8,30.50,NW,319,1.0,4.0,48,0.00,,,0.00,Wunderground v.1.15,2013-11-25 03:41:00,
2013-11-24 22:46:00,23.6,6.8,30.50,NW,305,1.0,4.0,48,0.00,,,0.00,Wunderground v.1.15,2013-11-25 03:46:00,
2013-11-24 22:51:00,23.5,6.7,30.50,WNW,302,2.0,2.0,48,0.00,,,0.00,Wunderground v.1.15,2013-11-25 03:51:00,
2013-11-24 22:56:00,23.5,7.1,30.50,WNW,288,2.0,4.0,49,0.00,,,0.00,Wunderground v.1.15,2013-11-25 03:56:00,
2013-11-24 23:01:00,23.5,7.1,30.50,WNW,288,1.0,2.0,49,0.00,,,0.00,Wunderground v.1.15,2013-11-25 04:01:00,
2013-11-24 23:06:00,23.5,7.1,30.50,WNW,288,1.0,8.0,49,0.00,,,0.00,Wunderground v.1.15,2013-11-25 04:06:00,
2013-11-24 23:11:00,23.3,7.4,30.50,WNW,289,1.0,1.0,50,0.00,,,0.00,Wunderground v.1.15,2013-11-25 04:11:00,
2013-11-24 23:18:00,23.3,7.4,30.50,WNW,288,1.0,2.0,50,0.00,,,0.00,Wunderground v.1.15,2013-11-25 04:18:00,
2013-11-24 23:23:00,23.3,7.4,30.50,WNW,288,0.0,1.0,50,0.00,,,0.00,Wunderground v.1.15,2013-11-25 04:23:00,
2013-11-24 23:28:00,23.3,7.4,30.50,WNW,292,0.0,4.0,50,0.00,,,0.00,Wunderground v.1.15,2013-11-25 04:28:00,
2013-11-24 23:34:00,23.2,7.3,30.50,WNW,292,1.0,1.0,50,0.00,,,0.00,Wunderground v.1.15,2013-11-25 04:34:00,
2013-11-24 23:39:00,23.2,7.3,30.50,WNW,292,1.0,4.0,50,0.00,,,0.00,Wunderground v.1.15,2013-11-25 04:39:00,
2013-11-24 23:44:00,23.2,7.3,30.50,WNW,292,1.0,2.0,50,0.00,,,0.00,Wunderground v.1.15,2013-11-25 04:44:00,
2013-11-24 23:49:00,23.0,7.5,30.50,WNW,292,1.0,2.0,51,0.00,,,0.00,Wunderground v.1.15,2013-11-25 04:49:00,
2013-11-24 23:55:00,23.0,7.5,30.50,WNW,291,1.0,4.0,51,0.00,,,0.00,Wunderground v.1.15,2013-11-25 04:55:00,